RH
25 21 22 22 23 24 23 24 27 28 28 31 35 35 29 26 31 32 25 24 29 25 18 18 20 22 25 25 25 29 36 41 43 44 43 41 40 41 42 45 47 48 49 49 44 40 41 43 43 42 42 39 34 31 29 26 24 25 26 25 25 25 23 23 22 23 27 31 34 39 45 57 71 84 95 99 99 98 95 88 81 77 79 80 75 70 69
26 22 21 22 23 24 25 25 26 27 29 30 33 35 31 29 31 30 28 30 32 26 19 18 21 24 25 25 28 34 39 42 43 42 40 39 39 39 40 42 45 47 48 49 47 44 41 36 32 31 31 31 32 30 23 19 19 19 20 21 21 21 21 21 20 19 18 19 20 22 24 28 34 43 57 75 93 102 99 97 95 91 89 88 83 78 76
31 25 21 22 23 23 25 25 24 24 28 29 32 35 33 34 36 33 33 40 40 28 18 19 28 31 27 28 34 38 39 41 42 41 40 39 38 36 38 41 41 44 47 49 50 50 45 35 28 25 23 26 35 35 25 19 19 17 16 17 18 19 20 19 19 20 20 17 16 17 18 19 21 23 27 37 56 79 97 103 99 98 98 94 88 85 80
34 26 22 22 22 22 24 25 25 26 30 32 32 33 34 38 41 40 39 40 37 27 18 20 28 30 26 26 29 34 39 42 42 41 40 39 38 35 36 37 38 40 43 46 49 51 47 42 38 34 29 30 39 39 27 20 19 17 15 16 15 15 18 20 21 21 20 18 16 15 14 15 16 18 19 20 23 39 68 87 91 95 100 95 90 88 83
34 25 23 25 26 28 29 29 29 29 30 31 30 29 31 35 38 40 38 35 32 29 25 23 24 24 23 22 26 33 41 43 42 41 40 37 35 35 34 33 36 40 42 47 51 50 46 47 44 36 29 28 28 26 23 23 24 23 24 24 21 17 17 20 23 21 19 19 19 17 15 14 14 14 17 23 21 19 32 53 70 89 99 95 91 92 89
34 26 26 33 35 35 34 33 35 37 36 36 34 31 31 34 37 38 35 31 31 32 30 27 26 28 29 31 36 42 45 46 45 43 41 37 35 36 37 35 38 43 46 50 52 51 50 48 37 26 26 31 31 30 34 35 31 28 31 32 29 23 18 19 22 22 21 23 22 19 17 15 14 14 17 24 27 24 32 48 64 84 98 97 96 100 95
33 27 32 43 44 38 34 33 37 41 40 39 39 37 39 43 45 45 41 36 35 36 34 33 34 38 41 42 42 44 44 46 48 45 43 40 37 39 42 45 47 49 50 50 52 54 53 48 40 37 42 48 49 49 48 42 35 32 33 34 33 28 21 18 20 22 24 25 23 20 18 16 15 15 15 18 21 27 47 70 78 85 97 101 99 101 97
33 33 38 44 42 33 30 32 37 41 40 40 43 44 47 49 48 47 46 43 42 45 44 43 43 43 43 39 36 38 40 42 44 43 43 43 41 43 48 52 54 53 51 50 52 55 54 51 50 51 53 54 55 54 48 40 36 36 36 35 34 31 26 23 22 21 20 22 24 23 22 21 20 17 14 16 19 23 44 75 88 91 98 101 98 98 96
34 37 35 34 35 33 32 39 48 51 50 51 53 51 48 46 43 43 44 43 42 44 45 47 47 44 40 35 32 34 37 38 39 40 41 43 44 45 47 48 49 48 49 51 52 56 57 55 55 55 55 57 59 59 54 48 42 41 41 40 35 31 31 30 25 18 14 16 22 26 27 28 29 26 18 16 24 32 47 73 92 97 100 100 98 99 98
33 37 37 36 40 40 41 49 55 56 56 58 60 54 46 42 40 38 39 40 39 39 40 43 44 44 41 35 31 33 36 37 39 39 38 39 39 39 40 41 42 43 46 48 48 50 53 53 55 58 60 62 63 63 63 60 54 52 51 45 39 38 38 32 24 17 14 14 20 26 32 37 38 35 27 23 34 51 66 82 94 99 101 101 99 100 100
35 40 45 43 41 41 48 54 49 46 53 58 59 55 48 42 39 36 36 38 38 38 40 40 39 43 42 34 31 38 40 36 37 38 37 36 37 36 35 36 39 42 44 45 44 45 48 51 54 57 59 61 63 64 66 64 60 60 57 49 43 44 40 29 20 17 15 14 16 20 28 34 34 36 41 46 57 73 85 91 96 99 101 101 100 100 100
37 40 45 41 35 41 53 53 43 42 52 61 63 60 53 46 40 36 36 37 37 38 41 41 37 38 39 34 33 40 40 35 36 39 39 38 38 37 36 38 40 40 39 40 42 44 47 48 48 50 52 55 59 63 66 64 62 62 58 51 49 50 45 31 21 20 23 23 21 21 27 31 31 36 51 63 77 90 95 95 98 100 100 100 100 100 100
36 39 44 38 34 46 53 45 39 44 52 58 61 57 51 46 41 37 37 37 38 39 41 40 37 34 36 37 38 40 39 36 38 39 39 39 38 37 39 42 44 42 39 39 40 41 42 42 43 46 47 50 56 61 62 63 63 60 53 50 52 53 49 42 36 35 34 34 35 36 39 42 42 45 56 75 93 98 92 92 98 100 99 100 101 100 98
37 36 41 38 38 51 55 41 36 43 49 52 51 47 44 43 40 39 39 38 38 39 39 41 40 38 39 41 41 41 40 40 41 41 39 38 38 38 39 41 42 42 42 42 41 41 42 43 44 46 49 52 56 60 61 63 62 57 53 55 55 51 51 54 53 44 36 36 44 50 53 57 59 63 76 92 97 88 83 91 100 101 100 101 100 98 96
39 39 43 45 46 52 52 43 39 42 45 46 43 40 40 40 38 40 41 40 41 40 39 42 44 44 45 47 46 46 46 45 45 44 42 41 40 39 40 39 38 40 42 43 43 45 47 48 49 51 54 56 58 60 62 63 62 60 60 59 56 55 60 60 54 46 45 51 61 68 74 77 78 82 91 90 79 74 84 98 102 100 99 100 99 96 90
42 46 44 42 43 44 45 43 42 42 42 41 40 39 39 38 39 41 41 42 45 46 44 44 46 46 47 47 47 48 48 49 48 47 46 45 42 41 40 39 39 42 44 44 45 48 50 53 56 58 59 60 63 64 64 63 63 62 61 60 61 64 66 62 58 61 69 75 78 83 88 90 90 95 93 78 69 80 96 101 99 100 101 100 94 84 72
41 43 40 37 37 38 39 39 39 39 41 42 41 41 40 39 39 40 40 42 45 48 48 47 46 47 47 46 47 48 48 48 47 45 44 42 41 41 41 41 42 45 47 49 51 53 55 58 61 63 63 64 67 69 70 70 68 66 65 66 68 70 70 72 74 77 81 84 86 88 89 91 97 99 89 76 80 95 101 99 101 101 95 85 74 63 56
37 37 36 36 37 36 34 35 36 37 39 41 41 42 41 41 41 41 43 44 43 45 49 48 46 47 48 48 48 48 48 46 45 43 42 41 40 41 42 44 48 51 52 53 54 56 59 62 65 67 68 69 70 72 74 75 74 73 72 73 74 73 75 79 79 78 81 85 88 91 92 95 99 96 87 86 94 100 99 100 101 94 79 67 58 51 47
42 40 35 33 35 34 32 32 33 32 34 36 38 40 40 40 41 42 45 46 45 45 47 48 47 47 47 47 48 48 47 46 45 45 45 44 45 47 49 52 57 61 62 61 60 61 62 64 67 69 71 73 74 74 76 78 79 78 78 79 80 79 80 84 85 83 84 87 90 94 97 98 99 96 93 95 100 101 100 98 90 78 63 52 44 39 38
42 41 34 29 30 31 30 31 31 31 33 35 37 39 42 43 44 45 45 44 44 44 45 46 46 46 46 45 46 46 45 45 45 46 46 47 51 55 59 63 65 67 68 67 66 65 65 67 69 70 71 74 74 75 77 79 79 80 80 80 81 83 87 91 91 87 86 88 91 96 99 99 100 100 99 100 101 99 93 81 67 54 45 40 38 38 41
40 36 31 28 31 31 30 31 33 34 36 40 42 45 48 48 49 49 48 45 44 43 44 45 46 46 45 45 46 47 48 49 49 50 51 55 59 64 67 69 70 72 73 74 75 73 71 71 72 73 74 75 75 74 75 76 77 80 82 82 84 89 92 90 87 87 90 91 92 96 99 100 100 100 100 99 94 83 71 60 50 42 40 45 50 51 50
42 36 32 34 39 40 36 36 40 42 43 47 50 54 56 57 57 57 56 55 52 48 46 45 46 47 49 51 53 54 55 56 57 59 62 64 66 68 70 72 73 72 72 73 76 77 76 76 77 77 77 78 75 72 72 76 80 83 85 85 85 87 88 86 87 90 93 94 96 98 99 100 102 99 93 87 79 66 56 54 53 49 48 52 54 50 46
44 40 39 43 47 46 44 45 48 50 52 56 60 63 66 67 68 68 68 66 61 57 54 52 53 57 60 60 61 61 62 64 65 66 69 70 70 72 76 78 79 79 78 79 81 82 82 82 81 80 78 80 81 80 81 84 86 85 85 86 86 87 89 89 91 94 96 97 97 98 100 102 97 84 70 63 59 51 47 48 51 51 51 51 49 45 42
47 46 48 53 54 52 52 54 56 60 64 67 70 73 75 77 78 77 77 74 70 69 69 66 65 68 70 70 69 69 70 70 71 72 74 77 81 86 89 91 91 92 93 92 91 90 88 85 84 84 86 87 89 89 90 90 88 88 90 92 91 93 95 94 94 98 100 98 98 102 101 92 76 61 54 52 51 48 47 48 51 52 51 49 47 46 44
54 53 56 60 62 62 63 66 69 72 74 76 79 80 83 87 89 87 86 85 81 81 82 79 75 74 75 75 77 78 79 80 81 83 87 90 93 96 97 97 97 96 95 93 91 90 90 91 93 95 97 98 97 96 95 93 91 93 98 99 97 98 99 99 99 99 100 100 101 97 83 66 58 58 57 52 50 51 51 52 52 53 52 50 49 48 46
59 61 65 69 70 71 73 76 79 81 82 84 86 86 87 92 93 91 93 93 89 86 85 83 80 81 83 85 87 90 92 93 93 95 98 99 99 97 96 95 95 94 93 93 94 96 97 98 100 100 100 100 100 99 98 97 96 98 100 100 100 100 99 99 99 100 102 100 91 76 63 59 62 62 54 48 49 52 51 51 52 53 53 53 52 50 48
66 69 76 79 76 76 80 84 87 88 88 91 94 94 95 96 94 92 93 93 90 88 86 86 88 91 93 94 95 97 99 99 99 100 100 100 99 99 98 97 96 97 97 97 98 100 100 100 100 100 100 100 100 100 100 100 100 101 101 100 100 100 99 100 101 101 97 88 73 63 60 61 60 54 47 47 50 50 50 51 52 53 54 55 54 52 49
73 78 87 91 90 90 92 94 92 90 89 90 92 92 92 91 91 92 91 88 88 89 90 93 96 97 96 97 98 99 100 100 100 100 100 100 101 101 99 97 97 99 100 100 100 100 100 100 100 100 100 100 100 100 100 100 100 100 100 100 101 100 100 99 95 88 81 74 69 67 65 61 58 55 52 52 52 51 51 52 52 52 54 55 54 53 51
82 89 96 99 98 95 93 92 92 92 92 92 92 93 93 91 90 91 90 90 91 94 96 99 100 99 99 100 100 100 100 100 100 100 100 101 99 95 93 96 99 100 100 100 100 100 100 100 99 99 100 100 100 100 100 100 100 101 100 100 100 98 95 90 84 79 78 76 73 69 65 64 63 60 56 53 52 50 50 50 51 54 56 55 55 56 55
92 95 96 95 92 89 87 90 94 96 98 98 98 99 99 97 94 94 95 97 98 98 99 100 100 100 100 100 100 100 100 100 100 100 101 100 96 91 92 97 100 100 100 100 100 100 100 100 99 100 100 99 99 100 100 99 99 98 96 94 92 90 87 84 82 80 77 73 67 62 61 61 59 56 54 52 50 49 51 51 53 59 61 59 59 61 63
92 89 88 89 89 87 86 89 94 96 99 100 100 100 100 99 99 99 100 100 100 100 101 101 100 100 101 100 100 101 100 100 101 100 100 100 98 96 98 101 100 100 100 100 99 99 99 99 99 100 100 100 99 99 99 97 95 93 90 88 87 86 83 81 79 74 68 63 61 61 60 56 53 51 51 50 50 53 55 54 55 60 61 60 62 64 66
91 86 84 85 89 90 91 95 98 99 100 101 100 100 100 100 100 100 100 100 100 100 100 100 100 100 100 100 100 100 100 100 101 100 100 101 100 99 100 100 100 100 100 100 99 99 98 98 99 99 99 99 99 98 96 93 90 89 89 88 86 84 80 75 71 67 62 57 56 56 53 50 49 49 49 50 53 55 55 54 57 60 60 61 65 65 62
94 91 90 91 95 96 97 99 100 100 100 100 100 100 100 100 100 100 100 101 100 100 100 100 100 100 100 100 100 101 100 100 100 100 100 100 100 101 101 99 98 99 98 97 96 94 93 93 95 94 93 93 94 95 94 92 90 89 87 85 84 80 74 68 65 63 59 53 49 48 46 46 48 50 51 54 55 55 56 57 58 60 62 65 66 63 62
97 98 99 99 100 100 99 100 101 101 101 100 100 101 101 100 100 100 99 99 100 100 100 101 100 100 100 100 100 100 99 98 99 100 101 100 99 100 100 98 96 95 95 94 94 93 94 94 93 91 89 88 88 88 88 87 87 85 81 80 77 70 62 58 58 56 52 48 45 45 44 45 48 50 50 52 54 55 57 59 59 62 66 67 64 62 63
99 100 100 99 100 100 100 100 100 99 99 100 100 99 96 94 94 94 95 97 99 98 98 99 100 100 100 100 100 100 99 99 100 100 100 100 101 100 100 99 98 96 95 95 94 94 94 93 92 91 90 88 86 86 85 82 80 78 76 75 72 62 53 49 48 47 45 43 42 43 44 47 49 48 47 49 51 52 53 55 57 60 64 65 64 64 64
100 101 100 100 101 101 99 98 97 97 97 96 94 92 89 88 88 90 91 94 95 92 90 91 93 94 95 95 98 99 99 100 101 101 100 100 100 99 98 97 97 95 93 91 90 89 88 87 87 88 87 85 83 82 82 81 78 75 73 73 69 60 49 43 42 42 42 41 41 43 46 47 46 46 48 50 51 52 53 56 59 63 66 68 69 68 66
99 99 99 100 100 99 99 98 97 97 95 91 87 87 87 87 88 89 89 90 91 91 90 87 85 88 91 93 94 95 96 97 98 100 100 101 100 97 94 93 94 94 93 93 94 93 89 87 86 86 84 83 82 83 84 84 82 78 74 72 68 59 46 40 39 39 39 40 43 46 47 46 46 48 52 53 54 56 58 61 66 69 71 71 71 70 70
97 99 101 100 98 97 99 100 99 98 96 93 92 91 89 89 89 89 88 87 86 86 86 84 80 82 87 88 86 86 88 89 89 90 93 95 94 90 89 92 95 97 98 98 99 98 94 90 87 84 82 83 85 88 89 87 82 77 72 68 63 54 44 38 37 37 39 44 47 47 46 48 51 53 56 57 59 62 66 68 70 70 68 65 63 63 67
99 100 97 91 87 87 90 90 92 96 99 99 99 97 94 92 90 88 87 86 82 79 77 75 72 75 84 89 88 87 85 84 81 80 82 85 86 87 89 94 97 99 100 99 96 94 93 91 89 86 86 88 90 91 91 88 82 75 70 64 58 51 43 38 38 41 44 48 49 50 52 55 56 56 59 63 66 68 68 65 60 56 53 51 49 51 59
100 97 89 80 76 77 79 77 81 90 97 99 98 96 92 87 81 74 70 69 67 65 65 63 60 64 74 82 85 84 82 81 80 77 73 72 73 75 79 84 87 89 91 91 89 87 86 85 85 84 86 88 90 90 91 91 86 77 68 61 56 51 46 44 45 48 50 52 54 57 59 58 57 59 64 68 67 64 58 52 48 46 46 44 45 49 57
96 93 85 78 75 77 80 82 85 89 87 81 75 69 63 58 54 50 48 49 48 46 46 45 46 55 69 78 79 74 67 63 63 61 60 61 64 65 67 69 71 72 73 73 73 74 74 74 77 79 81 83 85 86 87 88 87 80 72 65 60 55 52 51 51 53 55 58 59 60 60 60 63 66 67 63 56 49 44 43 45 46 45 43 45 50 58
97 91 83 79 79 83 89 93 92 85 75 68 63 55 47 43 40 36 34 35 35 34 32 30 29 37 53 67 73 71 68 64 56 48 46 54 65 71 72 68 62 57 58 59 60 61 62 62 63 66 71 76 81 84 84 83 82 79 73 68 64 60 58 58 58 60 61 62 62 63 65 66 66 62 55 49 43 39 40 42 43 42 42 43 45 50 57
99 92 83 80 83 90 97 99 92 80 71 67 63 57 50 45 40 34 29 26 25 25 25 23 20 21 29 36 41 48 59 69 69 59 51 51 56 62 66 67 58 48 43 45 46 47 49 51 50 50 51 55 61 66 72 77 80 81 80 76 72 68 66 65 64 65 66 67 67 66 64 59 52 45 41 39 39 39 40 40 37 36 39 44 46 50 58
98 94 87 84 88 94 99 97 87 76 68 61 55 52 52 49 41 33 28 25 22 20 19 18 18 19 19 19 18 20 27 41 56 61 56 49 46 46 49 53 53 47 40 37 36 36 37 40 42 41 40 39 38 39 41 47 53 59 65 69 69 68 67 66 64 62 60 57 53 49 43 37 32 31 33 36 37 36 34 32 32 37 45 51 55 60 65
96 95 89 88 92 96 96 88 76 67 60 52 44 42 45 46 41 32 25 22 20 18 16 16 16 16 17 23 31 29 18 13 22 34 34 29 30 33 33 34 38 40 39 37 37 36 35 36 38 37 35 32 30 28 26 26 27 29 32 36 39 40 41 41 39 37 35 33 29 26 24 24 24 27 30 31 31 30 32 36 44 55 64 68 69 70 69
96 96 92 91 93 92 86 76 66 61 60 56 49 39 33 32 33 29 22 19 18 17 15 15 15 11 12 25 45 54 43 23 14 17 20 19 18 20 21 22 24 27 30 31 32 34 35 36 36 35 33 30 27 25 23 22 22 23 24 24 24 24 24 25 25 25 26 26 25 25 26 26 26 27 28 29 32 39 50 62 71 76 78 77 74 72 70
95 94 91 91 87 76 62 54 54 59 62 62 57 46 33 27 28 26 21 17 17 16 14 14 15 12 9 12 24 40 51 46 31 20 18 19 16 13 14 16 17 17 19 21 23 25 28 29 30 30 30 30 29 27 25 24 23 23 24 24 24 24 24 25 26 27 28 30 30 30 31 33 36 36 36 41 52 65 76 83 88 88 84 80 77 74 72
93 88 86 82 71 54 43 45 55 61 60 57 55 51 41 31 28 25 21 19 21 21 16 12 10 9 8 7 5 10 24 35 32 19 12 12 12 9 9 11 13 13 15 16 16 17 19 22 23 24 25 27 27 27 26 26 26 26 25 24 24 24 23 23 24 26 31 35 39 41 44 51 59 63 61 66 78 86 87 86 90 93 90 85 80 76 74
87 84 82 77 64 52 50 58 64 60 54 54 56 54 47 42 42 42 38 34 36 39 34 23 14 10 9 9 6 4 6 12 14 11 7 7 8 7 7 7 8 9 11 12 13 13 14 16 19 21 23 28 33 35 35 34 32 31 30 29 28 27 27 26 25 28 32 37 44 54 63 70 79 85 83 83 90 95 91 87 91 97 97 92 87 82 79
77 77 75 71 64 58 59 61 58 52 51 56 57 53 50 53 58 57 48 41 41 45 43 32 23 18 14 10 7 6 6 6 6 6 7 7 6 7 7 7 7 7 7 8 9 11 13 15 18 21 24 29 35 40 44 47 46 43 41 40 38 37 37 36 37 43 48 49 53 63 72 77 85 94 94 90 91 97 97 94 95 99 100 98 95 91 88
67 66 64 62 60 58 57 57 54 53 55 58 57 53 52 55 55 50 43 40 45 51 50 38 25 20 18 14 7 5 6 7 6 6 7 7 6 7 7 7 7 8 8 8 8 10 12 13 16 23 35 46 51 48 46 48 51 51 50 49 49 49 49 48 49 57 66 69 70 75 82 86 92 100 101 96 94 98 101 99 97 98 99 100 100 98 97
61 60 58 57 58 59 58 58 58 59 58 58 58 56 54 55 54 48 38 32 37 46 48 39 25 16 14 13 10 6 5 6 7 6 6 7 7 7 7 8 9 9 10 10 11 12 13 14 14 18 31 50 62 61 55 54 58 60 58 57 61 68 71 70 68 72 78 81 83 89 94 96 98 100 101 99 98 100 100 99 97 97 98 100 100 99 99
Wind_Speed
13 13 12 11 9 11 13 13 13 13 12 11 11 12 13 12 10 11 11 12 12 10 9 9 8 9 10 11 13 13 13 13 12 11 10 9 7 6 5 5 6 6 6 6 6 6 6 6 6 6 5 6 6 6 6 7 8 8 7 7 7 7 8 8 8 8 9 10 11 12 13 13 13 14 15 17 18 19 20 23 26 27 26 28 30 31 32
13 13 13 13 12 13 13 15 15 15 15 15 14 14 15 15 15 15 14 14 12 9 9 10 6 8 10 10 11 12 13 14 13 12 11 9 8 7 5 5 5 5 5 5 6 5 5 5 5 5 5 6 7 8 8 9 9 9 9 9 9 9 10 11 12 12 11 12 12 13 14 14 14 14 15 15 15 17 18 18 20 21 22 25 27 28 30
11 13 14 14 14 15 15 16 16 16 15 15 15 14 13 14 15 15 14 14 11 9 12 11 3 3 7 9 11 13 13 14 14 13 11 10 8 7 6 5 4 4 4 4 5 6 6 6 6 7 7 7 8 9 10 11 12 12 12 11 11 11 11 12 13 14 14 15 15 15 16 16 17 17 17 17 17 16 16 16 18 18 19 22 24 25 29
10 11 13 13 13 15 17 17 16 16 16 14 13 12 11 11 12 13 14 13 9 8 12 13 7 5 8 11 12 13 12 13 14 13 11 10 8 7 6 5 4 4 4 4 4 5 6 7 8 8 9 9 9 10 12 14 14 15 15 14 14 14 14 14 14 15 16 17 17 17 18 18 19 19 19 19 19 18 16 17 19 19 18 20 22 23 28
9 8 8 8 9 11 12 10 10 13 15 16 15 14 13 13 12 11 12 10 6 4 5 9 10 11 12 13 12 12 11 12 13 12 11 10 8 7 5 4 3 3 3 3 4 5 6 7 8 9 10 11 12 13 15 15 15 16 16 16 17 17 17 16 16 17 17 18 18 19 19 20 20 21 21 20 20 20 18 18 21 20 18 20 21 21 26
8 7 4 4 8 10 5 2 1 4 7 10 12 13 12 11 9 8 9 9 7 5 5 7 9 9 8 7 6 7 9 10 12 11 10 9 8 5 4 2 2 2 3 4 6 7 7 8 10 12 12 12 13 14 14 15 16 16 16 16 17 19 19 19 18 18 18 18 19 19 20 20 21 21 21 21 21 20 18 17 18 19 18 18 17 16 21
7 6 4 6 9 4 2 4 4 2 3 5 8 8 6 5 6 7 9 9 8 7 6 7 7 4 1 2 5 6 7 8 9 10 10 9 7 5 1 1 3 4 5 6 8 8 9 10 12 12 11 11 12 12 13 15 17 17 17 17 18 19 20 21 20 19 19 19 19 20 20 21 21 22 22 22 22 21 17 14 15 17 17 16 15 16 21
7 5 6 8 5 2 1 1 2 2 3 3 5 6 1 4 4 4 5 5 4 3 2 3 3 3 4 5 6 6 6 6 5 5 6 6 7 6 4 4 5 6 7 8 8 9 11 12 11 11 11 11 12 13 16 18 19 19 19 19 19 19 20 21 22 22 22 21 21 21 21 20 21 22 23 23 22 21 18 14 13 15 16 16 17 20 26
7 7 8 8 8 8 7 3 3 3 2 3 4 5 1 4 4 4 4 3 3 2 1 1 0 4 7 7 7 8 7 6 5 3 2 0 3 4 5 6 7 8 9 9 9 10 12 13 13 13 13 12 13 14 16 18 19 19 19 19 20 21 21 21 23 24 25 24 23 23 22 21 20 21 22 23 22 20 18 14 13 14 16 17 20 24 29
6 8 9 8 10 8 2 3 4 4 3 3 4 6 3 3 5 5 4 4 4 3 2 2 1 5 8 7 7 7 5 4 4 2 2 2 3 5 6 8 9 9 10 10 11 12 14 15 14 14 14 13 14 14 14 16 17 17 17 18 20 20 21 22 24 25 26 26 25 24 23 21 20 20 21 22 21 18 16 14 14 14 15 18 22 26 30
6 8 8 8 9 5 3 5 4 4 3 2 3 5 4 3 7 7 6 5 5 4 5 5 4 5 8 8 6 6 4 4 5 5 5 5 6 7 8 9 10 11 12 14 15 15 16 16 15 15 15 15 15 15 15 15 16 16 17 19 20 20 22 24 25 26 27 27 27 26 25 23 22 21 21 20 18 16 13 13 14 15 17 19 22 26 31
8 8 8 7 7 2 4 5 5 6 5 3 4 6 3 4 9 9 8 8 8 7 7 6 5 5 6 5 1 6 8 8 7 8 9 9 11 12 12 12 13 15 16 17 17 17 17 18 18 18 17 17 17 17 17 17 17 17 18 20 20 21 23 25 27 27 27 28 28 27 26 25 24 22 21 19 16 13 12 14 15 16 18 20 22 26 31
9 9 8 8 6 1 5 6 6 6 4 3 6 5 3 7 11 11 10 11 10 9 9 8 7 7 7 9 10 10 11 11 11 12 13 14 14 15 15 15 17 19 20 20 20 21 21 21 21 20 20 19 19 19 19 19 19 19 21 22 21 22 23 25 26 27 27 27 28 27 26 25 24 23 21 17 14 14 16 17 18 19 19 20 22 27 30
8 7 7 8 5 3 7 8 6 3 3 4 3 4 6 9 12 12 11 12 11 11 11 10 11 12 12 13 14 13 14 15 15 16 17 18 18 19 19 20 21 22 22 22 23 24 23 23 22 21 20 21 21 20 21 21 21 22 23 22 23 24 24 24 25 27 29 29 28 26 25 23 22 20 17 14 15 17 19 19 20 20 20 20 24 29 28
6 7 8 8 5 3 7 8 4 1 3 5 7 10 12 12 12 12 11 11 11 13 13 11 12 13 13 13 14 14 16 17 18 19 21 22 23 23 23 24 23 22 23 23 23 23 23 23 22 21 21 22 22 22 23 23 22 22 23 23 24 25 24 25 27 29 29 28 25 23 21 20 18 18 19 20 19 20 21 20 20 19 20 24 28 29 24
4 6 6 4 2 3 5 7 5 4 7 10 12 14 15 14 13 12 12 11 11 12 12 13 14 14 14 15 15 15 16 17 18 20 21 23 24 24 25 25 24 24 25 26 25 24 23 22 22 22 22 23 23 24 24 24 23 23 24 24 24 25 25 27 28 26 24 23 21 20 20 18 18 21 24 23 21 20 21 20 18 20 25 29 28 24 20
5 7 8 8 10 10 9 9 10 11 12 12 13 14 14 15 15 14 15 14 13 13 13 16 17 16 16 16 17 17 18 18 19 20 21 23 25 25 25 26 25 24 26 27 26 25 24 23 23 23 23 24 25 26 25 24 24 24 24 24 24 25 25 25 24 22 21 20 19 19 20 20 21 23 23 20 19 20 19 18 20 26 28 27 24 21 19
9 11 11 12 13 14 14 14 15 15 14 12 12 13 14 15 16 17 17 17 17 17 17 18 19 19 18 18 19 20 21 22 23 24 25 25 26 26 26 25 24 24 26 27 28 27 26 25 24 25 25 25 26 26 25 24 24 24 23 24 24 25 25 23 22 21 20 20 19 19 20 20 21 22 21 18 18 19 17 20 27 31 29 25 23 21 18
8 8 7 8 12 15 17 18 18 16 15 14 14 16 17 18 19 19 19 19 20 20 19 19 21 22 22 22 23 23 23 24 24 25 26 26 26 25 25 25 24 25 27 27 27 27 27 26 25 25 25 26 26 26 25 24 23 23 23 24 24 25 24 22 21 20 20 19 18 18 19 20 20 19 18 17 18 19 23 29 30 29 26 24 22 19 16
8 9 11 15 18 19 18 18 18 16 16 16 17 19 21 21 21 21 21 21 21 21 21 21 23 24 25 26 26 26 26 25 25 26 26 26 25 25 25 25 25 26 27 28 28 28 28 27 25 25 26 26 26 26 25 24 24 24 24 23 24 24 22 21 21 20 18 18 18 18 19 21 19 17 16 18 21 26 30 31 30 28 25 23 20 17 15
9 11 13 15 16 16 16 18 18 18 18 20 22 23 23 24 24 24 23 24 23 23 23 23 24 26 27 26 26 26 26 26 27 27 27 27 26 26 26 26 25 26 27 28 28 29 29 28 27 27 27 27 26 26 26 25 24 24 24 25 25 24 23 22 21 18 16 16 18 20 21 20 17 16 19 24 29 30 29 27 26 25 23 20 17 15 14
8 9 11 13 12 12 16 19 21 22 23 24 25 25 25 26 26 25 25 25 25 25 25 25 25 26 26 25 25 26 26 27 27 27 27 27 27 26 26 27 27 27 28 28 29 30 30 28 27 27 27 27 26 27 27 26 25 25 25 24 23 23 22 20 19 18 17 16 18 21 21 19 22 26 28 29 28 27 26 24 21 20 19 18 17 16 14
10 12 17 19 17 17 21 24 25 26 26 26 25 25 25 25 25 25 25 25 25 25 25 23 22 23 24 25 26 26 27 27 27 27 27 27 28 27 27 27 27 28 28 28 29 30 30 29 28 28 28 27 27 26 26 25 25 25 24 23 22 21 20 20 20 20 18 18 19 20 20 25 31 34 33 30 27 25 23 22 21 19 18 17 16 13 12
15 18 21 21 21 22 25 26 27 27 26 25 24 24 23 23 24 25 25 25 23 23 23 22 21 21 24 25 26 27 28 29 28 28 27 27 27 26 25 25 26 26 27 27 28 28 28 28 28 27 27 27 26 25 25 24 24 23 22 22 21 19 18 19 21 21 21 20 19 21 28 34 36 35 34 32 29 26 24 22 20 17 15 14 12 10 9
18 22 23 23 23 25 26 26 26 25 22 22 23 25 25 23 22 22 24 24 23 22 24 24 23 23 24 25 26 26 27 28 27 27 27 26 25 24 24 24 24 25 26 26 27 27 26 25 25 26 27 27 27 26 25 24 23 22 21 20 19 19 19 21 21 22 22 21 23 31 38 38 36 35 34 32 30 28 25 21 18 15 13 11 9 8 7
21 23 23 22 22 23 23 23 23 22 22 22 24 25 24 21 19 19 21 21 22 22 23 24 24 23 23 24 24 24 24 25 24 24 24 23 23 23 23 24 24 25 25 25 24 23 23 23 24 25 26 26 26 26 25 22 20 20 20 19 19 19 21 22 21 21 22 25 33 38 38 36 34 33 31 30 29 27 24 20 17 14 11 9 7 6 5
19 19 18 18 18 19 19 20 22 24 24 24 24 23 21 19 18 19 18 18 19 20 20 21 21 21 20 20 20 20 21 22 22 22 22 22 23 23 23 23 23 23 22 21 20 19 18 17 16 14 14 14 14 15 15 14 15 16 17 17 17 17 18 20 21 25 30 35 37 35 33 33 32 30 28 27 25 22 20 18 15 12 10 7 6 4 3
16 15 15 15 17 18 19 20 21 22 21 20 19 19 19 18 18 18 18 18 17 16 16 16 17 17 18 18 18 19 19 20 20 21 21 21 20 20 21 20 18 17 15 13 11 8 5 4 3 3 3 2 4 6 9 12 14 15 14 14 15 19 23 28 33 37 38 38 35 33 32 31 29 28 26 24 21 19 17 14 12 10 8 6 4 3 2
14 16 16 15 16 18 18 18 18 18 18 17 17 17 17 17 17 16 16 15 14 12 12 14 15 16 17 17 18 19 19 18 18 18 18 17 18 19 17 14 10 8 5 1 4 7 9 11 12 12 12 11 11 12 14 16 18 19 21 24 29 34 36 37 39 39 37 34 32 32 30 28 27 26 24 21 18 16 14 12 10 8 7 5 3 2 1
16 17 16 16 15 15 15 16 16 16 17 17 16 15 14 13 13 12 11 11 10 10 10 12 13 13 14 15 15 15 14 14 14 14 15 16 17 16 10 5 3 4 8 11 13 15 17 21 23 24 23 22 23 24 25 26 26 28 31 34 35 36 36 36 35 34 33 31 30 29 27 25 23 22 20 17 15 14 12 10 10 9 7 5 3 2 1
17 17 16 15 14 14 15 16 16 15 15 15 13 12 11 9 8 8 8 8 9 9 9 10 10 11 11 11 11 10 9 8 8 8 8 8 7 4 3 7 10 13 15 16 17 20 22 24 26 26 25 25 25 26 27 27 29 32 33 33 32 31 31 31 30 28 28 28 28 25 23 21 20 19 17 16 14 12 11 10 9 8 7 6 4 4 3
16 16 14 13 13 14 15 16 15 13 11 11 10 10 10 9 9 9 9 9 9 9 9 10 10 10 10 8 6 5 3 1 1 2 4 6 9 11 13 14 15 18 19 20 21 22 21 21 22 23 22 22 22 22 23 27 30 31 30 29 27 26 26 26 26 26 26 26 25 23 21 20 18 16 15 13 12 11 10 9 8 7 6 5 5 4 4
15 15 14 14 15 16 16 15 12 9 8 9 9 10 10 10 10 10 9 10 9 9 10 10 9 9 10 9 6 4 6 8 10 13 15 17 18 19 19 18 19 21 22 22 19 17 17 19 20 20 19 19 19 20 21 25 26 25 24 23 21 21 22 24 25 25 25 24 23 22 20 18 16 13 11 10 10 10 9 8 7 6 5 4 4 5 5
12 13 13 13 13 12 11 10 8 7 8 9 11 12 12 13 14 15 15 15 15 14 14 14 15 16 18 18 15 14 15 17 19 22 23 24 23 23 23 22 21 21 20 17 14 13 15 16 16 17 16 16 16 16 16 17 17 17 17 17 18 21 23 24 24 23 23 22 21 19 17 15 13 12 11 10 10 9 8 8 6 5 4 3 4 5 5
10 10 9 9 7 5 5 6 8 10 12 14 15 16 17 19 20 22 23 23 23 23 23 23 24 27 29 29 27 24 22 23 25 27 29 29 28 24 22 21 20 17 15 13 12 12 13 12 13 14 14 12 13 13 13 12 13 13 13 15 19 22 24 23 23 23 22 21 19 17 14 12 11 10 10 10 10 9 8 7 6 4 4 4 4 5 4
9 8 7 5 5 6 10 13 14 15 16 17 18 19 20 21 22 22 23 23 23 24 25 27 29 31 34 35 35 34 31 29 29 32 35 36 33 28 23 21 20 19 17 17 17 17 16 15 13 12 11 11 12 13 13 13 14 14 14 15 18 19 20 21 22 21 20 18 15 13 11 10 9 9 9 9 8 8 7 5 5 4 3 3 3 4 4
8 6 5 5 8 11 13 14 13 12 14 16 18 18 18 18 19 20 21 21 20 20 22 25 28 30 31 32 33 35 36 36 35 36 38 38 36 32 29 28 27 26 24 23 21 20 19 17 15 12 12 11 11 11 11 12 13 14 14 16 17 17 18 20 21 19 17 13 11 10 9 9 9 8 8 7 7 6 5 5 4 3 2 1 2 3 4
6 6 7 9 11 12 11 11 10 10 11 12 13 14 15 16 16 16 17 18 19 18 19 21 24 26 27 28 30 32 34 35 37 38 39 38 37 34 33 32 32 32 30 27 23 20 18 17 15 14 13 12 11 11 11 11 12 13 15 16 17 17 18 19 18 16 12 10 9 9 9 9 8 7 7 6 6 5 4 3 2 1 1 2 3 4 4
6 8 10 11 11 11 11 10 10 9 8 8 9 10 11 13 13 14 15 16 16 17 17 19 21 22 21 21 24 27 30 32 33 35 36 37 37 36 34 33 32 31 30 28 25 23 20 17 15 15 14 12 11 10 11 11 12 13 15 16 17 18 17 16 14 12 9 8 8 8 7 7 6 6 5 5 4 3 1 1 1 2 3 3 3 3 4
8 10 12 12 12 11 11 11 11 9 8 8 8 8 9 10 11 13 14 15 15 16 17 18 21 23 21 18 19 22 25 28 29 30 31 32 33 33 32 30 28 27 26 26 25 25 23 21 19 19 17 15 12 11 11 10 9 10 13 16 16 15 14 12 11 9 8 8 7 6 6 5 4 4 4 3 2 1 1 2 3 3 3 4 4 4 4
9 11 11 11 10 10 9 9 9 9 9 9 9 9 10 11 12 14 15 16 16 17 18 18 20 21 20 18 19 21 23 24 25 27 29 29 29 29 29 27 24 22 22 22 22 22 22 22 23 22 21 19 16 14 13 11 9 9 10 12 13 13 12 11 9 8 7 6 5 4 4 4 3 3 2 1 0 1 1 2 2 3 3 3 3 3 3
8 10 10 10 9 8 7 6 7 8 9 10 10 10 11 12 13 14 15 15 16 17 17 18 19 20 18 16 16 18 20 21 21 23 25 26 25 24 24 22 19 17 17 18 17 18 18 20 21 21 21 20 18 15 13 11 10 9 9 9 9 9 9 9 8 7 6 5 4 4 4 3 2 1 0 1 1 1 1 2 2 2 3 3 3 3 3
8 9 10 10 8 6 5 4 5 7 8 9 10 10 11 12 12 13 14 14 15 16 16 17 18 19 18 17 17 17 18 17 17 18 20 22 22 21 21 18 16 15 15 15 15 16 16 17 17 17 17 16 14 13 12 11 10 9 9 9 8 8 7 8 7 6 5 5 4 3 2 1 0 1 1 1 1 1 2 2 3 3 3 3 3 4 4
8 9 9 10 8 6 4 4 5 5 6 7 9 9 10 10 11 12 13 14 15 16 16 16 17 17 18 18 18 18 18 17 15 14 16 17 18 18 18 16 14 13 13 14 14 15 15 15 15 14 12 11 10 9 8 8 8 8 8 8 7 7 7 7 6 6 5 4 3 1 0 1 1 1 1 0 1 2 3 3 3 3 3 3 4 4 4
8 10 9 9 8 6 4 4 5 5 6 7 9 10 10 10 11 12 14 15 15 16 16 17 17 17 17 18 18 18 18 18 17 15 15 16 16 16 15 15 14 12 12 11 11 12 12 13 12 11 10 9 7 6 5 6 6 6 7 6 6 5 4 4 4 4 4 3 3 2 1 1 1 1 0 0 1 2 3 3 3 4 5 5 5 5 5
9 11 10 8 7 6 6 7 7 6 5 5 7 9 10 10 10 11 13 14 15 15 16 16 16 16 17 16 15 14 15 16 17 17 16 15 14 13 13 12 12 11 10 10 10 10 10 10 9 9 8 8 7 6 5 5 5 5 5 5 5 4 3 3 3 4 4 4 4 4 3 3 2 2 2 2 3 4 5 5 6 7 7 7 6 6 5
10 11 10 9 9 9 9 9 8 6 5 3 3 5 8 9 9 10 12 13 14 14 15 15 15 15 16 15 14 13 12 13 14 15 15 15 13 12 12 11 11 10 10 10 9 9 9 8 8 7 7 7 6 6 6 6 5 5 5 5 4 4 4 4 4 4 4 4 4 4 4 4 3 3 4 6 6 7 7 8 8 8 8 8 8 7 6
11 11 11 11 11 11 10 9 7 6 5 4 3 3 5 7 8 9 11 12 12 13 14 14 14 14 14 14 14 13 12 11 12 13 13 13 13 12 12 11 11 10 10 10 10 9 8 8 7 6 6 6 5 5 5 5 5 5 5 4 4 4 3 4 4 5 4 4 4 5 5 5 5 6 7 8 9 8 8 8 9 10 10 9 9 9 8
12 12 12 12 13 12 10 8 7 6 5 4 3 2 3 5 6 7 8 9 9 9 10 12 13 13 13 13 13 13 13 13 13 13 13 12 12 12 12 12 11 10 10 10 9 9 8 7 6 6 5 5 4 5 5 5 5 5 5 5 5 4 3 3 3 4 4 5 6 6 6 6 7 7 7 8 9 8 8 8 10 11 11 11 11 11 10
13 13 14 13 12 12 10 8 7 6 5 4 3 2 2 3 2 2 3 5 7 7 8 9 10 11 11 11 12 12 13 13 13 13 13 12 12 12 11 12 12 11 11 10 9 8 7 6 6 5 5 4 4 4 4 4 5 5 6 5 5 5 5 5 4 4 4 5 5 6 6 7 8 8 6 7 8 8 8 8 9 11 12 12 13 13 13
14 15 14 12 11 11 10 8 7 6 5 5 4 2 2 2 1 0 2 4 5 5 5 7 8 8 8 9 10 11 11 12 13 13 13 13 13 13 12 12 12 12 12 11 10 9 7 6 5 5 5 5 4 4 4 4 5 5 6 6 5 5 5 6 5 5 5 4 5 6 7 7 8 8 6 5 6 7 7 7 8 9 10 11 11 12 14
15 14 13 12 11 11 9 8 8 7 6 5 5 4 2 2 1 1 2 4 4 3 3 4 6 6 7 7 8 9 10 11 12 12 12 12 13 13 13 13 13 13 12 12 12 11 9 7 6 5 4 4 4 4 4 5 5 5 5 5 5 5 5 6 6 6 5 5 6 7 7 7 8 7 5 4 5 7 6 6 7 8 9 8 9 10 11
Wind_Direction
265 270 272 271 270 267 268 269 269 269 263 254 250 250 257 265 261 262 279 279 262 257 265 259 229 206 204 199 195 189 178 173 170 166 165 162 154 143 123 105 89 78 73 67 59 56 55 50 43 40 36 26 14 5 359 353 348 345 343 340 336 330 323 313 298 284 276 273 271 273 275 271 266 261 255 253 251 251 255 256 257 257 254 251 256 256 248
270 268 265 261 259 259 260 260 259 260 259 257 256 255 255 258 258 262 275 277 267 261 276 283 260 220 221 214 197 188 182 178 175 173 174 168 159 150 132 111 97 81 69 59 49 39 28 17 8 0 355 354 350 342 331 327 328 327 326 327 323 320 318 313 308 304 298 291 286 283 283 283 282 279 274 266 257 251 251 249 249 251 250 252 258 256 246
272 269 266 259 256 258 260 258 255 256 257 255 254 256 257 257 260 264 266 267 265 259 263 268 263 209 223 210 194 191 189 184 180 180 180 172 163 155 139 122 111 91 75 61 44 29 10 354 346 340 335 338 340 333 323 321 321 317 316 318 317 315 313 310 308 308 305 301 298 295 290 286 284 283 283 280 273 263 254 246 246 248 247 251 257 254 248
271 270 265 262 266 270 266 261 255 252 251 252 252 253 252 248 254 261 260 260 265 263 252 245 229 216 224 219 212 204 192 187 187 185 182 174 163 154 142 130 116 99 76 50 31 15 359 349 343 337 332 333 331 321 316 318 318 317 318 317 316 315 314 313 311 309 305 303 300 298 297 294 290 286 283 281 279 276 268 259 257 253 246 251 259 255 247
275 276 271 277 284 278 269 264 253 245 248 255 256 254 250 244 245 254 257 261 287 318 270 249 249 248 245 242 234 215 196 190 191 189 183 175 164 152 143 130 107 83 50 29 11 352 345 341 333 327 324 322 319 315 316 317 318 320 322 322 319 317 317 316 314 310 306 304 301 297 295 294 293 292 288 284 280 278 273 268 263 253 243 252 259 253 245
271 272 278 289 274 263 267 18 29 265 268 274 270 266 264 261 263 275 279 279 292 305 283 271 277 276 267 251 222 198 191 188 188 189 185 175 165 154 138 111 65 32 14 357 343 338 334 327 322 320 320 319 315 314 315 315 317 320 322 322 321 320 319 318 314 310 307 304 301 299 296 293 291 290 290 288 285 279 271 264 259 247 241 246 244 234 237
268 271 262 258 259 258 75 76 68 12 312 299 289 283 291 312 311 303 297 291 290 290 278 271 278 285 265 181 175 176 178 178 184 191 195 193 190 189 191 346 348 349 343 333 327 323 319 319 321 320 317 314 311 310 311 313 317 320 320 320 321 320 319 317 313 310 306 302 300 298 297 295 291 289 288 287 286 281 270 257 251 245 239 236 227 223 231
253 254 242 245 264 341 341 212 64 15 278 273 281 264 210 40 359 324 315 311 319 328 298 255 252 221 180 170 166 156 143 137 151 178 195 209 215 227 270 312 326 325 321 319 315 311 311 314 315 311 306 306 305 305 308 311 314 317 316 316 317 317 315 313 310 307 305 303 300 296 295 294 291 289 288 286 285 280 270 256 246 242 233 227 230 236 234
248 255 256 256 273 285 270 246 62 25 309 314 309 274 212 71 37 10 5 5 9 3 8 118 208 199 190 179 155 136 122 108 105 116 123 212 248 264 292 307 312 313 313 312 309 307 308 308 306 304 302 301 301 300 303 306 309 311 311 311 311 311 309 307 304 304 303 302 300 297 293 290 288 287 287 285 282 277 266 252 243 238 229 229 238 240 235
245 258 267 266 267 273 283 89 74 40 348 324 303 275 239 95 60 25 9 17 18 9 11 359 273 215 218 213 167 131 107 84 66 32 5 340 307 300 306 307 307 307 305 303 302 302 302 301 301 300 298 296 294 292 294 298 302 304 304 304 306 304 301 300 300 299 299 298 296 295 292 288 284 282 282 282 278 269 258 247 241 234 229 234 240 237 233
247 255 264 263 263 273 58 68 47 28 10 329 284 257 236 62 34 12 357 357 354 349 352 338 292 242 240 228 162 101 39 359 357 339 323 319 312 306 306 306 305 306 306 304 304 302 299 298 297 295 293 291 288 284 284 288 293 294 295 298 300 298 296 296 297 296 296 294 292 290 287 285 283 278 275 274 268 258 249 243 239 235 234 239 239 232 229
249 252 258 263 271 292 65 47 20 21 15 331 266 248 248 6 358 352 348 340 334 329 327 319 290 260 262 267 1 20 342 324 329 324 317 317 313 308 307 304 303 305 306 305 304 301 297 295 294 293 292 288 283 280 280 283 284 286 289 294 295 293 293 295 296 296 295 294 292 288 283 281 279 274 270 265 257 247 241 236 234 236 239 242 237 226 217
254 254 256 264 269 99 72 37 17 18 353 275 253 259 328 340 331 335 335 323 322 323 314 299 278 271 287 309 323 326 317 313 316 314 312 312 310 307 306 305 305 306 305 302 300 296 294 294 293 292 289 285 280 278 278 278 279 282 287 290 289 288 290 292 293 293 294 294 290 284 278 275 271 268 265 259 249 242 240 236 235 238 240 238 228 212 200
259 255 258 267 262 92 51 11 3 7 289 258 268 319 327 317 317 325 324 313 312 312 303 292 283 281 286 296 302 305 307 308 309 309 309 309 307 306 305 305 306 305 302 299 297 294 292 292 291 289 285 280 277 276 274 274 276 281 285 285 285 286 286 285 286 289 293 293 288 280 273 267 264 261 256 248 243 243 241 239 241 241 236 223 206 193 186
263 255 254 263 256 78 31 356 354 22 300 303 322 318 308 306 312 315 313 311 309 301 292 286 284 284 284 287 292 296 298 300 302 303 304 304 304 304 304 302 302 299 294 291 289 287 286 286 285 283 279 277 275 273 271 271 274 277 278 279 280 281 279 280 283 286 290 289 283 273 266 262 259 253 246 246 249 246 241 240 242 233 213 197 188 183 180
259 253 251 273 316 18 357 335 320 309 304 306 309 305 301 302 304 303 305 308 307 299 288 283 284 284 281 283 287 289 291 294 296 297 298 299 299 299 298 296 296 293 289 286 284 282 280 278 276 274 274 274 272 270 269 270 271 272 273 275 276 275 276 278 280 282 284 280 272 264 261 259 252 246 247 251 250 243 240 241 232 208 191 183 178 173 167
271 272 279 299 304 300 305 310 304 298 296 295 297 296 295 295 296 297 297 298 301 299 289 283 284 283 281 282 284 285 286 287 288 288 290 291 292 291 290 289 289 287 284 283 282 280 278 275 272 270 269 270 269 269 268 268 268 268 269 269 269 270 272 272 272 273 274 270 263 259 257 251 244 245 250 251 241 235 238 231 205 185 175 169 164 159 156
284 278 273 280 286 288 294 298 296 294 293 292 292 291 291 292 292 292 293 293 294 294 288 284 282 279 279 282 282 282 284 284 285 286 287 287 287 287 286 285 284 283 281 280 280 279 277 275 272 270 268 267 267 267 267 266 264 264 264 265 265 267 266 264 262 264 265 262 258 255 251 244 242 245 246 241 234 229 217 196 182 172 162 155 153 154 156
283 277 270 278 285 290 295 296 294 292 289 287 286 287 290 292 290 289 291 292 291 289 286 282 280 278 279 281 281 282 283 283 285 286 286 287 287 286 286 286 285 284 282 281 280 279 277 276 273 271 268 266 265 266 265 263 262 262 262 262 262 262 261 258 255 255 255 252 250 249 245 239 239 241 239 233 224 206 183 172 167 162 156 152 152 154 156
279 280 283 288 288 289 292 292 291 290 290 291 292 290 290 290 288 286 286 285 286 286 284 282 281 281 281 281 281 283 283 284 285 286 286 287 287 286 286 286 285 284 283 282 281 279 279 278 276 274 271 268 266 266 265 264 263 262 261 260 259 258 256 253 250 248 247 245 243 241 241 240 238 235 224 206 188 173 165 160 157 154 152 152 151 150 148
280 278 284 291 292 292 292 291 290 291 293 297 298 297 295 291 287 285 283 280 279 279 280 281 282 281 281 281 282 283 284 285 285 286 287 288 288 287 287 287 286 285 283 282 282 281 280 281 280 277 274 271 269 267 266 265 263 261 258 257 255 255 254 251 247 242 241 239 235 234 237 235 222 202 183 171 162 157 154 156 158 157 155 152 147 138 133
281 288 299 303 301 294 291 292 293 295 297 299 299 298 297 294 291 289 287 283 280 277 275 277 278 279 280 282 283 284 285 286 286 287 288 289 288 287 287 288 287 286 284 283 283 283 282 282 280 278 276 274 271 268 266 264 261 258 258 256 255 255 254 249 242 239 236 230 228 232 229 211 184 165 157 155 155 151 149 150 152 151 146 141 133 130 132
288 294 299 301 297 290 290 293 296 298 300 300 298 296 296 296 297 297 294 290 285 280 277 276 276 278 281 282 284 286 286 285 287 288 287 287 287 287 288 289 288 286 284 283 282 282 282 282 280 279 277 274 271 268 265 262 258 256 256 255 253 252 248 242 240 238 227 219 222 221 199 175 162 154 149 149 148 145 143 144 144 142 138 131 128 131 132
293 293 297 300 297 292 294 297 298 298 298 298 297 297 298 298 297 296 295 291 287 283 282 281 278 279 281 283 285 286 286 286 287 287 287 287 287 288 288 288 286 286 285 284 283 283 283 282 281 278 275 272 269 266 262 258 255 253 251 249 247 245 241 239 238 230 218 217 216 193 169 161 157 150 145 144 144 145 147 147 142 138 133 127 125 126 119
298 300 302 301 296 294 295 295 295 296 298 300 300 299 299 299 297 294 291 287 282 281 284 285 284 284 285 286 286 285 285 285 285 285 286 286 286 287 287 286 286 285 285 284 284 284 283 281 279 277 274 270 265 260 256 253 250 246 242 238 235 232 229 228 225 219 215 208 186 167 160 159 156 149 146 146 147 149 151 148 144 140 134 126 121 116 107
303 302 300 297 293 291 293 294 297 301 304 304 300 298 298 299 300 297 292 286 281 280 282 284 285 286 285 285 285 285 285 285 286 288 288 287 287 287 287 286 286 286 284 283 283 282 283 283 283 280 276 272 266 261 256 250 242 235 231 228 227 228 227 224 217 208 196 177 162 158 158 157 153 151 151 150 149 149 149 148 147 143 134 126 121 113 101
304 300 299 297 294 293 297 300 302 304 304 302 298 296 296 297 297 297 296 292 288 285 283 284 286 287 287 287 288 288 287 288 290 290 288 287 288 289 288 288 289 287 284 283 282 282 285 288 288 285 277 269 261 253 244 231 221 218 219 221 222 219 212 202 185 169 159 154 151 151 152 151 150 152 152 149 147 144 141 138 137 136 135 135 130 115 92
303 301 301 298 296 298 302 302 301 302 304 304 301 298 297 298 297 296 296 296 295 293 292 289 287 287 287 287 287 286 287 289 290 291 290 289 289 290 290 292 290 285 282 282 283 286 299 320 341 345 314 250 208 202 201 195 194 192 186 178 170 161 154 150 146 144 145 147 147 147 147 146 147 149 149 147 144 140 137 137 139 142 146 150 142 125 95
308 305 302 299 297 298 299 298 298 302 307 309 308 305 302 300 298 297 298 299 301 301 296 289 286 285 286 288 290 292 295 296 297 297 297 294 293 294 296 292 285 279 280 343 89 96 93 84 77 74 78 89 106 125 136 139 139 136 132 131 134 134 135 136 138 140 142 143 141 140 140 141 144 148 149 149 148 146 147 151 153 153 159 165 164 160 89
311 309 305 302 301 299 298 300 303 307 311 315 317 316 311 304 302 306 310 308 307 308 305 300 301 302 301 302 303 303 302 301 299 298 297 296 299 303 298 262 193 126 100 97 96 96 94 87 81 79 81 86 94 103 109 112 114 119 124 129 131 132 134 136 137 138 138 137 136 136 138 142 148 152 153 154 154 154 157 161 160 161 170 177 174 172 192
315 314 310 306 305 304 307 313 317 320 324 328 332 335 336 335 337 344 346 337 330 331 332 330 331 330 324 318 312 305 301 299 298 298 301 303 306 302 202 158 132 109 103 105 103 97 93 85 78 74 78 85 94 100 105 111 116 121 126 129 129 130 132 135 137 139 139 138 139 142 146 149 151 152 151 153 156 158 163 167 166 167 172 172 168 179 204
318 318 317 318 319 317 321 327 332 335 341 346 353 1 7 11 14 12 6 1 357 356 355 353 352 350 346 339 325 312 314 345 60 72 75 91 111 126 137 136 124 114 111 111 107 98 89 79 70 69 76 86 93 99 107 115 119 121 123 125 126 128 131 135 139 141 141 142 144 148 149 148 147 148 151 155 160 165 168 170 169 168 167 167 180 217 254
321 324 326 329 328 325 327 336 346 357 6 11 19 25 26 28 30 26 17 13 15 15 13 15 22 25 26 31 43 74 93 95 94 91 88 90 103 117 125 126 123 119 114 108 101 91 80 74 71 72 79 89 96 102 111 117 120 121 121 123 127 131 133 136 139 142 145 148 150 150 149 148 150 156 163 164 164 165 166 166 167 168 166 178 220 264 284
326 328 325 326 325 323 329 342 2 27 41 47 52 53 50 49 51 51 50 49 48 48 47 52 61 63 61 61 69 84 95 92 85 82 83 85 92 106 117 120 120 118 113 106 97 86 78 75 73 74 82 92 99 104 110 116 120 121 120 123 130 134 136 139 143 146 151 153 153 151 154 159 163 169 171 169 167 168 168 170 173 173 181 221 272 294 294
337 338 333 333 338 349 14 40 62 74 76 75 72 69 68 69 68 66 65 65 64 65 64 65 67 68 67 67 67 71 78 82 80 81 83 84 88 98 111 116 115 113 109 102 91 80 75 74 73 76 83 91 98 103 108 116 123 125 125 128 134 139 141 144 146 149 153 156 157 160 166 170 171 173 175 176 180 183 185 190 197 201 214 248 284 306 306
350 354 353 4 35 71 86 90 90 88 85 83 81 79 78 76 73 71 71 70 69 69 69 68 67 67 67 66 65 65 66 70 76 82 85 86 87 93 101 103 101 98 94 87 78 72 70 71 74 80 89 98 104 106 109 114 119 124 129 133 139 145 149 151 152 155 159 161 164 169 175 176 175 176 180 185 190 195 201 207 215 225 239 260 290 315 321
6 18 37 71 88 94 95 93 89 85 84 85 86 84 80 76 73 72 73 73 72 71 71 70 69 70 69 69 68 66 65 66 69 76 82 87 90 94 95 92 88 86 83 79 75 73 75 77 80 87 96 103 105 104 105 111 117 123 130 137 144 151 156 159 161 162 164 167 174 179 178 176 177 181 186 193 198 201 205 210 213 222 241 281 324 334 336
39 68 86 96 100 100 97 90 84 81 79 80 81 81 78 76 73 70 69 70 71 72 73 73 74 75 75 74 72 71 68 66 66 69 74 79 84 87 86 82 78 76 75 74 76 79 83 84 88 93 97 98 96 93 95 106 116 122 131 142 151 156 159 162 165 169 172 177 178 173 168 171 180 187 192 195 195 195 198 207 222 246 302 339 342 338 342
79 96 103 108 110 106 101 97 94 86 74 68 69 69 68 69 69 66 65 67 69 71 75 78 79 78 75 73 74 76 76 74 72 70 71 72 75 78 79 76 74 73 73 74 76 80 83 87 91 93 92 92 93 93 94 99 107 117 132 148 157 158 157 160 167 175 179 175 166 163 166 174 181 185 184 181 178 179 197 266 318 334 348 352 350 346 352
105 109 113 119 119 113 106 100 96 87 75 67 66 61 59 63 68 68 67 66 65 68 72 77 79 78 73 68 70 78 84 86 85 83 80 78 77 77 77 76 74 73 74 74 74 76 79 83 87 88 88 86 86 87 86 88 100 124 144 156 159 157 157 162 169 173 169 162 161 167 172 172 171 173 172 165 156 156 325 339 349 356 358 358 358 358 1
120 119 124 128 124 115 108 97 88 82 76 71 67 64 65 70 74 75 74 72 69 67 67 70 74 75 71 66 66 72 78 83 88 89 87 84 80 78 77 77 76 74 72 72 73 74 76 77 79 80 79 78 77 77 78 84 98 121 142 154 157 155 155 159 163 161 160 162 167 170 166 163 164 164 160 155 343 335 340 356 8 11 6 4 8 10 9
139 134 136 139 131 119 109 94 84 84 81 73 67 64 65 67 68 70 73 74 72 70 67 67 70 71 69 67 67 68 67 68 72 79 83 85 83 80 79 80 82 83 81 78 77 77 78 77 75 74 73 73 74 75 79 87 95 102 110 120 130 137 143 148 150 151 153 155 154 151 150 149 149 151 123 320 320 331 355 5 6 5 3 8 17 17 11
165 151 145 147 142 126 106 91 86 85 78 71 65 63 63 63 63 63 65 67 69 70 69 67 68 69 69 69 71 73 71 65 60 62 69 76 80 82 81 81 82 88 91 90 88 85 84 82 78 74 71 70 70 72 78 85 93 97 101 103 106 112 121 128 131 132 134 134 135 141 142 124 64 317 306 317 328 341 346 344 342 346 356 9 23 28 23
183 168 157 155 151 136 118 108 103 93 81 72 68 65 62 59 57 57 56 55 57 60 62 62 64 65 66 66 66 69 73 74 69 63 64 69 73 76 78 78 76 78 83 88 90 90 89 88 87 84 81 77 73 70 73 80 88 95 101 106 108 113 117 120 121 126 131 133 130 124 60 352 325 296 277 312 332 338 343 343 349 5 23 33 39 40 35
190 181 169 160 153 144 135 131 124 111 93 77 66 60 57 54 50 48 48 47 47 48 52 54 57 60 63 63 60 57 60 66 70 68 66 66 66 65 66 68 68 66 64 67 73 77 79 81 83 86 89 89 86 81 82 85 89 93 96 100 104 110 116 122 128 133 136 135 136 139 144 169 218 228 223 4 14 24 27 35 54 69 70 64 58 53 46
182 178 170 160 155 154 153 147 137 124 106 83 62 54 54 53 49 47 47 48 46 45 46 48 50 53 58 62 62 55 51 53 58 61 61 61 62 61 60 60 61 60 57 56 57 60 61 61 64 69 75 80 86 92 96 97 97 100 101 102 104 108 113 122 133 138 137 140 149 156 156 159 167 159 125 95 79 69 63 63 70 75 73 69 64 59 53
172 173 168 162 159 158 155 149 142 135 130 122 86 61 57 55 53 53 54 53 51 48 47 48 49 51 53 58 64 64 58 52 52 56 57 56 55 56 56 55 53 51 50 48 48 48 49 47 45 46 48 52 62 77 87 93 97 100 102 107 111 116 123 130 133 133 133 135 138 139 138 135 129 106 89 85 84 77 67 62 62 64 64 64 61 56 53
177 178 173 165 162 160 158 155 154 158 161 154 132 92 70 62 56 55 56 56 53 48 46 46 49 52 54 56 60 64 66 65 62 60 58 55 52 51 51 50 48 45 42 39 36 37 38 37 34 32 33 34 40 48 57 67 77 82 85 88 92 98 113 125 126 126 127 126 122 123 125 120 106 91 86 89 89 79 67 63 65 62 56 55 54 51 51
183 182 176 170 167 168 168 170 175 182 180 167 154 128 81 66 57 50 51 55 55 50 46 45 46 48 51 53 55 59 62 66 68 67 64 61 55 50 47 47 48 47 45 40 34 29 28 29 28 28 29 32 36 38 39 41 47 53 59 65 70 71 73 82 92 102 111 114 118 125 129 124 113 102 96 96 94 83 68 67 73 68 57 50 48 46 44
184 180 179 178 177 177 179 182 184 184 184 182 182 161 93 81 69 35 41 57 61 58 53 51 49 49 48 48 49 52 54 57 62 65 67 65 61 56 51 49 49 49 50 49 44 35 29 27 27 30 36 41 42 41 42 39 37 38 44 51 58 61 63 65 71 81 88 94 102 115 124 124 119 111 99 93 95 91 76 68 73 72 63 54 48 41 37
185 181 181 184 184 185 188 192 190 186 187 190 191 181 131 114 140 311 45 63 66 62 57 56 56 56 55 50 47 48 50 51 54 57 60 60 59 57 55 54 53 53 53 55 55 53 46 36 27 26 35 44 42 33 27 27 30 34 37 40 42 49 57 63 73 88 99 101 101 106 110 113 114 113 102 83 87 95 86 70 67 71 68 60 51 42 36
191 188 187 187 188 190 194 197 197 197 196 194 195 197 189 169 182 305 20 54 71 79 77 65 60 59 61 60 56 53 53 52 51 52 54 55 56 55 54 55 57 56 56 56 57 56 55 52 43 32 33 49 51 36 23 26 34 39 41 42 45 52 59 61 63 74 92 105 109 110 111 109 109 111 107 83 80 90 89 71 64 68 69 63 56 48 41